South St. Paul, MN

12:41 AM CDT on July 25, 2017 (GMT -0500)
South Saint Paul Municipal-Fleming

Weather History for KSGS - September, 2013

Change the Weather History Date:

Sunday, September 1, 2013

  Actual Average (KSTP) Record (KSTP)
Temperature  
Mean Temperature 70 °F -  
Max Temperature 75 °F 78 °F 91 °F (2008)
Min Temperature 65 °F 57 °F 50 °F (2001)
Cooling Degree Days 6    
Growing Degree Days 20 (Base 50)    
Moisture  
Dew Point 59 °F    
Average Humidity 64    
Maximum Humidity 80    
Minimum Humidity 52    
Precipitation  
Precipitation 0.00 in - - ()
Sea Level Pressure  
Sea Level Pressure 29.85 in    
Wind  
Wind Speed 7 mph (NW)    
Max Wind Speed 16 mph    
Max Gust Speed 20 mph    
Visibility 10 miles    
Events      
Averages and records for this station are not official NWS values.
T = Trace of Precipitation, MM = Missing Value Source: NWS Daily Summary

Daily Weather History Graph

Daily Weather History Graph

Search for Another Location

Airport or City:

Trip Planner

Search our weather history database for the weather conditions in past years. The results will help you decide how hot, cold, wet, or windy it might be!

Date:

Astronomy

Sep. 01, 2013 Rise Set
Actual Time 6:34 AM CDT 7:48 PM CDT
Civil Twilight 6:04 AM CDT 8:18 PM CDT
Nautical Twilight 5:28 AM CDT 8:54 PM CDT
Astronomical Twilight 4:49 AM CDT 9:33 PM CDT
Moon 2:50 AM CDT (9/1) 5:31 PM CDT (9/1)
Length of Visible Light 14h 14m
Length of Day
13h 13m
Waning Crescent, 13% of the Moon is Illuminated
Sep 1
Waning Crescent
Sep 5
New
Sep 12
First Quarter
Sep 19
Full
Sep 26
Last Quarter

Hourly Weather History & Observations

Time (CDT) Temp. Dew Point Humidity Pressure Visibility Wind Dir Wind Speed Gust Speed Precip Events Conditions
12:12 AM 72.9 °F 66.2 °F 80% 29.74 in 10.0 mi SSW 3.5 mph - N/A   Clear
12:32 AM 73.6 °F 64.0 °F 72% 29.76 in 10.0 mi WSW 5.8 mph - N/A   Clear
12:52 AM 74.3 °F 64.0 °F 70% 29.75 in 10.0 mi WSW 8.1 mph - N/A   Scattered Clouds
1:12 AM 74.1 °F 64.4 °F 72% 29.75 in 10.0 mi WNW 3.5 mph - N/A   Clear
1:32 AM 73.4 °F 65.3 °F 76% 29.77 in 10.0 mi North 4.6 mph - N/A   Clear
1:52 AM 73.0 °F 65.3 °F 77% 29.78 in 10.0 mi WNW 3.5 mph - N/A   Clear
2:12 AM 73.0 °F 64.8 °F 75% 29.77 in 10.0 mi Calm Calm - N/A   Clear
2:32 AM 72.5 °F 64.8 °F 77% 29.78 in 10.0 mi Calm Calm - N/A   Clear
2:52 AM 72.1 °F 65.5 °F 79% 29.77 in 10.0 mi South 3.5 mph - N/A   Scattered Clouds
3:12 AM 72.5 °F 65.3 °F 78% 29.77 in 10.0 mi Calm Calm - N/A   Mostly Cloudy
3:32 AM 72.1 °F 64.9 °F 78% 29.77 in 10.0 mi Calm Calm - N/A   Scattered Clouds
3:52 AM 71.2 °F 64.9 °F 80% 29.77 in 10.0 mi West 3.5 mph - N/A   Clear
4:12 AM 71.6 °F 65.3 °F 80% 29.77 in 10.0 mi WNW 3.5 mph - N/A   Scattered Clouds
4:32 AM 72.5 °F 64.8 °F 77% 29.76 in 10.0 mi NNW 4.6 mph - N/A   Overcast
4:52 AM 72.3 °F 63.9 °F 75% 29.77 in 10.0 mi NW 5.8 mph - N/A   Overcast
5:12 AM 72.5 °F 62.8 °F 71% 29.77 in 10.0 mi NW 5.8 mph - N/A   Overcast
5:32 AM 72.3 °F 61.2 °F 68% 29.77 in 10.0 mi NW 6.9 mph - N/A   Mostly Cloudy
5:52 AM 71.2 °F 60.1 °F 68% 29.78 in 10.0 mi NNW 6.9 mph - N/A   Clear
6:12 AM 69.8 °F 60.1 °F 71% 29.78 in 10.0 mi North 8.1 mph - N/A   Clear
6:32 AM 69.6 °F 59.5 °F 70% 29.79 in 10.0 mi NNW 9.2 mph - N/A   Clear
6:52 AM 68.5 °F 59.5 °F 73% 29.80 in 10.0 mi NNW 8.1 mph - N/A   Clear
7:12 AM 68.2 °F 59.7 °F 74% 29.81 in 10.0 mi NNW 8.1 mph - N/A   Clear
7:32 AM 68.2 °F 59.5 °F 74% 29.82 in 10.0 mi NNW 5.8 mph - N/A   Clear
7:52 AM 68.4 °F 59.9 °F 74% 29.82 in 10.0 mi NNW 9.2 mph - N/A   Mostly Cloudy
8:12 AM 68.2 °F 59.9 °F 75% 29.82 in 10.0 mi NNW 11.5 mph - N/A   Overcast
8:32 AM 68.2 °F 59.9 °F 75% 29.83 in 10.0 mi NW 11.5 mph - N/A   Overcast
8:52 AM 68.0 °F 59.9 °F 75% 29.84 in 10.0 mi NW 10.4 mph - N/A   Overcast
9:12 AM 68.9 °F 59.4 °F 72% 29.84 in 10.0 mi WNW 8.1 mph - N/A   Scattered Clouds
9:32 AM 69.6 °F 59.0 °F 69% 29.85 in 10.0 mi NW 6.9 mph - N/A   Scattered Clouds
9:52 AM 70.0 °F 59.2 °F 68% 29.85 in 10.0 mi NW 10.4 mph 17.3 mph N/A   Scattered Clouds
10:12 AM 72.7 °F 59.5 °F 63% 29.85 in 10.0 mi NW 9.2 mph - N/A   Scattered Clouds
10:32 AM 72.9 °F 59.4 °F 62% 29.85 in 10.0 mi NW 11.5 mph - N/A   Scattered Clouds
10:52 AM 72.9 °F 59.4 °F 62% 29.85 in 10.0 mi NW 11.5 mph 19.6 mph N/A   Mostly Cloudy
11:12 AM 74.7 °F 59.0 °F 58% 29.85 in 10.0 mi NW 9.2 mph - N/A   Scattered Clouds
11:32 AM 73.9 °F 58.6 °F 59% 29.86 in 10.0 mi NW 10.4 mph - N/A   Mostly Cloudy
11:52 AM 74.3 °F 59.0 °F 59% 29.86 in 10.0 mi NW 11.5 mph - N/A   Overcast
12:12 PM 74.1 °F 58.6 °F 58% 29.86 in 10.0 mi NW 11.5 mph 16.1 mph N/A   Overcast
12:32 PM 74.3 °F 58.8 °F 58% 29.87 in 10.0 mi WNW 10.4 mph 17.3 mph N/A   Overcast
12:52 PM 75.4 °F 57.6 °F 54% 29.87 in 10.0 mi NW 16.1 mph 19.6 mph N/A   Overcast
1:12 PM 75.2 °F 57.7 °F 54% 29.87 in 10.0 mi NW 13.8 mph 19.6 mph N/A   Overcast
1:32 PM 74.8 °F 57.9 °F 55% 29.87 in 10.0 mi NW 11.5 mph 18.4 mph N/A   Overcast
1:52 PM 74.7 °F 58.5 °F 57% 29.87 in 10.0 mi WNW 12.7 mph 18.4 mph N/A   Overcast
2:12 PM 74.7 °F 58.5 °F 57% 29.87 in 10.0 mi NW 10.4 mph 19.6 mph N/A   Overcast
2:32 PM 75.4 °F 57.9 °F 54% 29.87 in 10.0 mi NW 12.7 mph 18.4 mph N/A   Overcast
2:52 PM 73.8 °F 57.4 °F 56% 29.87 in 10.0 mi NNW 10.4 mph - N/A   Overcast
3:12 PM 73.9 °F 58.1 °F 58% 29.87 in 10.0 mi NW 11.5 mph - N/A   Overcast
3:32 PM 74.8 °F 57.9 °F 55% 29.87 in 10.0 mi NNW 10.4 mph 17.3 mph N/A   Overcast
3:52 PM 75.2 °F 57.4 °F 54% 29.87 in 10.0 mi NW 15.0 mph 18.4 mph N/A   Overcast
4:12 PM 75.0 °F 57.9 °F 55% 29.88 in 10.0 mi NNW 12.7 mph - N/A   Overcast
4:32 PM 75.4 °F 56.5 °F 52% 29.88 in 10.0 mi NNW 12.7 mph 19.6 mph N/A   Overcast
4:52 PM 74.7 °F 56.7 °F 53% 29.89 in 10.0 mi NNW 10.4 mph - N/A   Overcast
5:12 PM 74.3 °F 57.0 °F 55% 29.89 in 10.0 mi North 6.9 mph - N/A   Overcast
5:32 PM 73.9 °F 57.2 °F 56% 29.89 in 10.0 mi North 10.4 mph - N/A   Overcast
5:52 PM 73.8 °F 57.2 °F 56% 29.90 in 10.0 mi NNW 9.2 mph - N/A   Overcast
6:12 PM 73.4 °F 57.0 °F 56% 29.90 in 10.0 mi North 11.5 mph - N/A   Overcast
6:32 PM 72.9 °F 57.2 °F 58% 29.91 in 10.0 mi North 12.7 mph 19.6 mph N/A   Overcast
6:52 PM 72.5 °F 56.8 °F 58% 29.91 in 10.0 mi NNW 9.2 mph - N/A   Overcast
7:12 PM 72.5 °F 56.3 °F 57% 29.91 in 10.0 mi NNW 11.5 mph - N/A   Overcast
7:32 PM 72.1 °F 56.5 °F 58% 29.92 in 10.0 mi North 8.1 mph - N/A   Overcast
7:52 PM 72.0 °F 55.6 °F 56% 29.92 in 10.0 mi NNW 8.1 mph 16.1 mph N/A   Overcast
8:12 PM 71.8 °F 55.4 °F 56% 29.92 in 10.0 mi NNW 9.2 mph - N/A   Overcast
8:32 PM 71.6 °F 54.0 °F 54% 29.93 in 10.0 mi NW 11.5 mph - N/A   Overcast
8:52 PM 70.9 °F 53.4 °F 54% 29.94 in 10.0 mi NNW 9.2 mph - N/A   Mostly Cloudy
9:12 PM 69.6 °F 54.0 °F 57% 29.94 in 10.0 mi NNW 6.9 mph - N/A   Scattered Clouds
9:32 PM 69.1 °F 53.8 °F 58% 29.95 in 10.0 mi North 6.9 mph - N/A   Clear
9:52 PM 69.1 °F 54.1 °F 59% 29.95 in 10.0 mi North 8.1 mph - N/A   Clear
10:12 PM 68.5 °F 54.0 °F 60% 29.96 in 10.0 mi North 9.2 mph - N/A   Clear
10:32 PM 67.6 °F 54.0 °F 61% 29.96 in 10.0 mi NNW 6.9 mph - N/A   Clear
10:52 PM 66.4 °F 54.0 °F 64% 29.97 in 10.0 mi North 5.8 mph - N/A   Clear
11:12 PM 66.4 °F 53.2 °F 63% 29.97 in 10.0 mi North 11.5 mph - N/A   Clear
11:32 PM 66.2 °F 53.2 °F 63% 29.98 in 10.0 mi NNW 6.9 mph - N/A   Clear
11:52 PM 65.3 °F 53.6 °F 66% 29.97 in 10.0 mi North 6.9 mph - N/A   Clear